Time,TemperatureF,DewpointF,PressureIn,WindDirection,WindDirectionDegrees,WindSpeedMPH,WindSpeedGustMPH,Humidity,HourlyPrecipIn,Conditions,Clouds,dailyrainin,SolarRadiationWatts/m^2,SoftwareType,DateUTC
2013-07-11 00:01:00,71.3,64.8,29.94,SE,126,0.0,4.0,80,0.00,,,0.00,0,WeatherCatV1.15B25,2013-07-11 05:01:00,
2013-07-11 00:06:00,71.3,64.8,29.94,SE,126,2.0,4.0,80,0.00,,,0.00,0,WeatherCatV1.15B25,2013-07-11 05:06:00,
2013-07-11 00:11:00,71.3,64.8,29.95,SE,126,2.0,4.0,80,0.00,,,0.00,0,WeatherCatV1.15B25,2013-07-11 05:11:00,
2013-07-11 00:16:00,71.3,64.8,29.95,SE,126,1.0,5.0,80,0.00,,,0.00,0,WeatherCatV1.15B25,2013-07-11 05:16:00,
2013-07-11 00:21:00,71.2,64.7,29.95,SE,126,5.0,5.0,80,0.00,,,0.00,0,WeatherCatV1.15B25,2013-07-11 05:21:00,
2013-07-11 00:26:00,71.2,64.7,29.95,SE,126,4.0,6.0,80,0.00,,,0.00,0,WeatherCatV1.15B25,2013-07-11 05:26:00,
2013-07-11 00:31:00,71.1,65.0,29.95,SE,126,7.0,7.0,81,0.00,,,0.00,0,WeatherCatV1.15B25,2013-07-11 05:31:00,
2013-07-11 00:36:00,70.9,64.8,29.95,SE,126,0.0,4.0,81,0.00,,,0.00,0,WeatherCatV1.15B25,2013-07-11 05:36:00,
2013-07-11 00:41:00,70.7,64.6,29.96,SE,126,0.0,5.0,81,0.00,,,0.00,0,WeatherCatV1.15B25,2013-07-11 05:41:00,
2013-07-11 00:46:00,70.5,64.7,29.96,SE,126,0.0,1.0,82,0.00,,,0.00,0,WeatherCatV1.15B25,2013-07-11 05:46:00,
2013-07-11 00:51:00,70.4,64.6,29.96,SE,126,0.0,4.0,82,0.00,,,0.00,0,WeatherCatV1.15B25,2013-07-11 05:51:00,
2013-07-11 00:56:00,70.3,64.5,29.95,SE,126,0.0,3.0,82,0.00,,,0.00,0,WeatherCatV1.15B25,2013-07-11 05:56:00,
2013-07-11 01:01:00,70.2,64.8,29.96,SE,126,0.0,4.0,83,0.00,,,0.00,0,WeatherCatV1.15B25,2013-07-11 06:01:00,
2013-07-11 01:06:00,70.3,64.9,29.95,SE,126,0.0,6.0,83,0.00,,,0.00,0,WeatherCatV1.15B25,2013-07-11 06:06:00,
2013-07-11 01:11:00,70.3,64.9,29.95,SE,126,0.0,3.0,83,0.00,,,0.00,0,WeatherCatV1.15B25,2013-07-11 06:11:00,
2013-07-11 01:16:00,70.2,64.8,29.94,SE,126,0.0,5.0,83,0.00,,,0.00,0,WeatherCatV1.15B25,2013-07-11 06:16:00,
2013-07-11 01:21:00,70.1,64.7,29.94,SE,126,4.0,4.0,83,0.00,,,0.00,0,WeatherCatV1.15B25,2013-07-11 06:21:00,
2013-07-11 01:26:00,70.0,64.6,29.94,SE,126,0.0,4.0,83,0.00,,,0.00,0,WeatherCatV1.15B25,2013-07-11 06:26:00,
2013-07-11 01:31:00,69.8,64.4,29.94,SE,126,4.0,4.0,83,0.00,,,0.00,0,WeatherCatV1.15B25,2013-07-11 06:31:00,
2013-07-11 01:36:00,69.7,64.6,29.94,ESE,122,1.0,4.0,84,0.00,,,0.00,0,WeatherCatV1.15B25,2013-07-11 06:36:00,
2013-07-11 01:41:00,69.7,64.6,29.94,ESE,122,0.0,4.0,84,0.00,,,0.00,0,WeatherCatV1.15B25,2013-07-11 06:41:00,
2013-07-11 01:46:00,69.6,64.5,29.93,ESE,122,3.0,7.0,84,0.00,,,0.00,0,WeatherCatV1.15B25,2013-07-11 06:46:00,
2013-07-11 01:51:00,69.4,64.3,29.93,ESE,122,1.0,4.0,84,0.00,,,0.00,0,WeatherCatV1.15B25,2013-07-11 06:51:00,
2013-07-11 01:56:00,69.4,64.7,29.93,ESE,122,1.0,4.0,85,0.00,,,0.00,0,WeatherCatV1.15B25,2013-07-11 06:56:00,
2013-07-11 02:01:00,69.4,64.3,29.93,SE,135,0.0,7.0,84,0.00,,,0.00,0,WeatherCatV1.15B25,2013-07-11 07:01:00,
2013-07-11 02:06:00,69.5,64.4,29.93,SE,135,5.0,7.0,84,0.00,,,0.00,0,WeatherCatV1.15B25,2013-07-11 07:06:00,
2013-07-11 02:11:00,69.4,64.3,29.93,SE,135,3.0,4.0,84,0.00,,,0.00,0,WeatherCatV1.15B25,2013-07-11 07:11:00,
2013-07-11 02:16:00,69.5,64.4,29.93,SE,126,0.0,3.0,84,0.00,,,0.00,0,WeatherCatV1.15B25,2013-07-11 07:16:00,
2013-07-11 02:21:00,69.4,64.3,29.93,SE,126,0.0,5.0,84,0.00,,,0.00,0,WeatherCatV1.15B25,2013-07-11 07:21:00,
2013-07-11 02:26:00,69.5,64.4,29.93,SE,126,0.0,0.0,84,0.00,,,0.00,0,WeatherCatV1.15B25,2013-07-11 07:26:00,
2013-07-11 02:31:00,69.5,64.4,29.93,SE,126,0.0,2.0,84,0.00,,,0.00,0,WeatherCatV1.15B25,2013-07-11 07:31:00,
2013-07-11 02:36:00,69.5,64.4,29.93,SE,126,1.0,1.0,84,0.00,,,0.00,0,WeatherCatV1.15B25,2013-07-11 07:36:00,
2013-07-11 02:41:00,69.5,64.4,29.94,SE,126,0.0,5.0,84,0.00,,,0.00,0,WeatherCatV1.15B25,2013-07-11 07:41:00,
2013-07-11 02:46:00,69.5,64.4,29.94,SE,126,1.0,4.0,84,0.00,,,0.00,0,WeatherCatV1.15B25,2013-07-11 07:46:00,
2013-07-11 02:51:00,69.5,64.4,29.94,SE,126,0.0,3.0,84,0.00,,,0.00,0,WeatherCatV1.15B25,2013-07-11 07:51:00,
2013-07-11 02:56:00,69.5,64.4,29.93,SE,126,0.0,4.0,84,0.00,,,0.00,0,WeatherCatV1.15B25,2013-07-11 07:56:00,
2013-07-11 03:01:00,69.5,64.1,29.94,SE,126,1.0,4.0,83,0.00,,,0.00,0,WeatherCatV1.15B25,2013-07-11 08:01:00,
2013-07-11 03:06:00,69.5,64.1,29.94,SE,126,5.0,5.0,83,0.00,,,0.00,0,WeatherCatV1.15B25,2013-07-11 08:06:00,
2013-07-11 03:11:00,69.4,64.0,29.93,SE,126,1.0,3.0,83,0.00,,,0.00,0,WeatherCatV1.15B25,2013-07-11 08:11:00,
2013-07-11 03:16:00,69.2,64.2,29.93,SE,126,0.0,4.0,84,0.00,,,0.00,0,WeatherCatV1.15B25,2013-07-11 08:16:00,
2013-07-11 03:21:00,69.0,64.0,29.93,SE,126,0.0,4.0,84,0.00,,,0.00,0,WeatherCatV1.15B25,2013-07-11 08:21:00,
2013-07-11 03:26:00,68.7,64.0,29.93,SE,126,1.0,5.0,85,0.00,,,0.00,0,WeatherCatV1.15B25,2013-07-11 08:26:00,
2013-07-11 03:31:00,68.5,63.8,29.93,SE,126,0.0,0.0,85,0.00,,,0.00,0,WeatherCatV1.15B25,2013-07-11 08:31:00,
2013-07-11 03:36:00,68.2,63.8,29.93,SE,126,0.0,5.0,86,0.00,,,0.00,0,WeatherCatV1.15B25,2013-07-11 08:36:00,
2013-07-11 03:41:00,67.9,63.5,29.93,SE,126,0.0,2.0,86,0.00,,,0.00,0,WeatherCatV1.15B25,2013-07-11 08:41:00,
2013-07-11 03:46:00,67.7,63.4,29.93,SE,126,3.0,3.0,86,0.00,,,0.00,0,WeatherCatV1.15B25,2013-07-11 08:46:00,
2013-07-11 03:51:00,67.6,63.6,29.94,SE,126,0.0,4.0,87,0.00,,,0.00,0,WeatherCatV1.15B25,2013-07-11 08:51:00,
2013-07-11 03:56:00,67.5,63.5,29.94,SE,126,1.0,2.0,87,0.00,,,0.00,0,WeatherCatV1.15B25,2013-07-11 08:56:00,
2013-07-11 04:01:00,67.4,63.4,29.94,SE,126,1.0,1.0,87,0.00,,,0.00,0,WeatherCatV1.15B25,2013-07-11 09:01:00,
2013-07-11 04:06:00,67.3,63.3,29.94,SE,126,0.0,3.0,87,0.00,,,0.00,0,WeatherCatV1.15B25,2013-07-11 09:06:00,
2013-07-11 04:11:00,67.2,63.5,29.94,SE,126,0.0,0.0,88,0.00,,,0.00,0,WeatherCatV1.15B25,2013-07-11 09:11:00,
2013-07-11 04:16:00,67.1,63.1,29.95,SE,126,0.0,0.0,87,0.00,,,0.00,0,WeatherCatV1.15B25,2013-07-11 09:16:00,
2013-07-11 04:21:00,67.0,63.3,29.95,SE,126,0.0,0.0,88,0.00,,,0.00,0,WeatherCatV1.15B25,2013-07-11 09:21:00,
2013-07-11 04:26:00,66.9,63.2,29.94,SE,126,0.0,0.0,88,0.00,,,0.00,0,WeatherCatV1.15B25,2013-07-11 09:26:00,
2013-07-11 04:31:00,66.7,63.0,29.94,SE,126,0.0,0.0,88,0.00,,,0.00,0,WeatherCatV1.15B25,2013-07-11 09:31:00,
2013-07-11 04:36:00,66.6,62.9,29.94,SE,126,0.0,1.0,88,0.00,,,0.00,0,WeatherCatV1.15B25,2013-07-11 09:36:00,
2013-07-11 04:41:00,66.5,62.8,29.94,SE,126,0.0,0.0,88,0.00,,,0.00,0,WeatherCatV1.15B25,2013-07-11 09:41:00,
2013-07-11 04:46:00,66.4,62.7,29.93,SE,126,0.0,2.0,88,0.00,,,0.00,0,WeatherCatV1.15B25,2013-07-11 09:46:00,
2013-07-11 04:51:00,66.3,62.6,29.93,SE,126,0.0,0.0,88,0.00,,,0.00,0,WeatherCatV1.15B25,2013-07-11 09:51:00,
2013-07-11 04:56:00,66.3,62.6,29.93,SE,126,0.0,0.0,88,0.00,,,0.00,0,WeatherCatV1.15B25,2013-07-11 09:56:00,
2013-07-11 05:01:00,66.2,62.5,29.94,SE,126,0.0,0.0,88,0.00,,,0.00,0,WeatherCatV1.15B25,2013-07-11 10:01:00,
2013-07-11 05:06:00,66.2,62.5,29.94,SE,126,0.0,2.0,88,0.00,,,0.00,0,WeatherCatV1.15B25,2013-07-11 10:06:00,
2013-07-11 05:11:00,66.1,62.4,29.94,SE,126,1.0,4.0,88,0.00,,,0.00,0,WeatherCatV1.15B25,2013-07-11 10:11:00,
2013-07-11 05:16:00,66.1,62.4,29.93,SE,126,0.0,4.0,88,0.00,,,0.00,0,WeatherCatV1.15B25,2013-07-11 10:16:00,
2013-07-11 05:21:00,66.0,62.3,29.93,SE,126,1.0,3.0,88,0.00,,,0.00,0,WeatherCatV1.15B25,2013-07-11 10:21:00,
2013-07-11 05:26:00,66.0,62.3,29.93,SE,126,1.0,3.0,88,0.00,,,0.00,0,WeatherCatV1.15B25,2013-07-11 10:26:00,
2013-07-11 05:31:00,66.0,62.0,29.93,SE,126,0.0,2.0,87,0.00,,,0.00,0,WeatherCatV1.15B25,2013-07-11 10:31:00,
2013-07-11 05:36:00,66.0,62.0,29.93,SE,126,0.0,4.0,87,0.00,,,0.00,0,WeatherCatV1.15B25,2013-07-11 10:36:00,
2013-07-11 05:41:00,66.0,62.0,29.93,SE,126,0.0,7.0,87,0.00,,,0.00,0,WeatherCatV1.15B25,2013-07-11 10:41:00,
2013-07-11 05:46:00,65.9,61.9,29.93,SE,126,1.0,3.0,87,0.00,,,0.00,0,WeatherCatV1.15B25,2013-07-11 10:46:00,
2013-07-11 05:51:00,65.9,61.9,29.93,SE,126,0.0,2.0,87,0.00,,,0.00,0,WeatherCatV1.15B25,2013-07-11 10:51:00,
2013-07-11 05:56:00,65.9,61.9,29.93,SE,126,4.0,5.0,87,0.00,,,0.00,0,WeatherCatV1.15B25,2013-07-11 10:56:00,
2013-07-11 06:01:00,66.0,62.0,29.93,SE,126,4.0,4.0,87,0.00,,,0.00,0,WeatherCatV1.15B25,2013-07-11 11:01:00,
2013-07-11 06:06:00,66.0,62.0,29.93,SE,126,0.0,2.0,87,0.00,,,0.00,0,WeatherCatV1.15B25,2013-07-11 11:06:00,
2013-07-11 06:11:00,66.1,61.8,29.94,SE,126,1.0,3.0,86,0.00,,,0.00,5,WeatherCatV1.15B25,2013-07-11 11:11:00,
2013-07-11 06:16:00,66.1,61.8,29.94,SE,126,0.0,2.0,86,0.00,,,0.00,7,WeatherCatV1.15B25,2013-07-11 11:16:00,
2013-07-11 06:21:00,66.1,61.8,29.95,SE,126,1.0,3.0,86,0.00,,,0.00,9,WeatherCatV1.15B25,2013-07-11 11:21:00,
2013-07-11 06:26:00,66.1,61.8,29.95,SE,126,0.0,2.0,86,0.00,,,0.00,14,WeatherCatV1.15B25,2013-07-11 11:26:00,
2013-07-11 06:31:00,66.3,62.0,29.97,SE,126,0.0,3.0,86,0.00,,,0.00,16,WeatherCatV1.15B25,2013-07-11 11:31:00,
2013-07-11 06:36:00,66.4,62.1,29.97,SE,127,2.0,5.0,86,0.00,,,0.00,26,WeatherCatV1.15B25,2013-07-11 11:36:00,
2013-07-11 06:41:00,66.6,62.3,29.97,SE,128,4.0,6.0,86,0.00,,,0.00,33,WeatherCatV1.15B25,2013-07-11 11:41:00,
2013-07-11 06:46:00,66.7,62.0,29.97,South,169,5.0,11.0,85,0.00,,,0.00,33,WeatherCatV1.15B25,2013-07-11 11:46:00,
2013-07-11 06:51:00,66.8,62.1,29.97,South,175,3.0,10.0,85,0.00,,,0.00,19,WeatherCatV1.15B25,2013-07-11 11:51:00,
2013-07-11 06:56:00,66.8,62.1,29.97,South,175,0.0,7.0,85,0.00,,,0.00,16,WeatherCatV1.15B25,2013-07-11 11:56:00,
2013-07-11 07:01:00,66.9,62.2,29.97,South,175,0.0,7.0,85,0.00,,,0.00,21,WeatherCatV1.15B25,2013-07-11 12:01:00,
2013-07-11 07:06:00,66.9,62.6,29.98,South,184,2.0,4.0,86,0.00,,,0.00,32,WeatherCatV1.15B25,2013-07-11 12:06:00,
2013-07-11 07:11:00,67.0,62.3,29.97,South,184,5.0,6.0,85,0.00,,,0.00,47,WeatherCatV1.15B25,2013-07-11 12:11:00,
2013-07-11 07:16:00,67.1,62.4,29.97,South,183,0.0,5.0,85,0.00,,,0.00,53,WeatherCatV1.15B25,2013-07-11 12:16:00,
2013-07-11 07:21:00,67.3,62.6,29.97,South,183,0.0,5.0,85,0.00,,,0.00,62,WeatherCatV1.15B25,2013-07-11 12:21:00,
2013-07-11 07:26:00,67.3,62.6,29.97,South,183,0.0,4.0,85,0.00,,,0.00,109,WeatherCatV1.15B25,2013-07-11 12:26:00,
2013-07-11 07:31:00,67.5,62.8,29.97,South,183,2.0,4.0,85,0.00,,,0.00,139,WeatherCatV1.15B25,2013-07-11 12:31:00,
2013-07-11 07:36:00,67.7,63.0,29.97,South,183,2.0,5.0,85,0.00,,,0.00,162,WeatherCatV1.15B25,2013-07-11 12:36:00,
2013-07-11 07:41:00,68.0,63.0,29.96,South,182,4.0,5.0,84,0.00,,,0.00,179,WeatherCatV1.15B25,2013-07-11 12:41:00,
2013-07-11 07:46:00,68.4,63.0,29.96,South,182,3.0,4.0,83,0.00,,,0.00,185,WeatherCatV1.15B25,2013-07-11 12:46:00,
2013-07-11 07:51:00,68.8,63.4,29.96,South,182,4.0,5.0,83,0.00,,,0.00,199,WeatherCatV1.15B25,2013-07-11 12:51:00,
2013-07-11 07:56:00,69.2,63.5,29.96,SSE,167,3.0,10.0,82,0.00,,,0.00,216,WeatherCatV1.15B25,2013-07-11 12:56:00,
2013-07-11 08:01:00,69.6,63.5,29.96,SSE,167,1.0,5.0,81,0.00,,,0.00,232,WeatherCatV1.15B25,2013-07-11 13:01:00,
2013-07-11 08:06:00,69.9,63.4,29.96,SSE,156,3.0,7.0,80,0.00,,,0.00,251,WeatherCatV1.15B25,2013-07-11 13:06:00,
2013-07-11 08:11:00,70.3,63.8,29.96,SSE,155,1.0,4.0,80,0.00,,,0.00,265,WeatherCatV1.15B25,2013-07-11 13:11:00,
2013-07-11 08:16:00,70.8,63.6,29.95,SE,145,5.0,10.0,78,0.00,,,0.00,283,WeatherCatV1.15B25,2013-07-11 13:16:00,
2013-07-11 08:21:00,71.2,63.6,29.96,SE,134,0.0,11.0,77,0.00,,,0.00,302,WeatherCatV1.15B25,2013-07-11 13:21:00,
2013-07-11 08:26:00,71.5,63.5,29.96,SE,144,5.0,9.0,76,0.00,,,0.00,313,WeatherCatV1.15B25,2013-07-11 13:26:00,
2013-07-11 08:31:00,72.0,63.6,29.96,SE,140,5.0,9.0,75,0.00,,,0.00,332,WeatherCatV1.15B25,2013-07-11 13:31:00,
2013-07-11 08:36:00,72.3,63.1,29.96,ESE,114,7.0,14.0,73,0.00,,,0.00,352,WeatherCatV1.15B25,2013-07-11 13:36:00,
2013-07-11 08:41:00,72.4,62.8,29.96,SE,146,4.0,13.0,72,0.00,,,0.00,369,WeatherCatV1.15B25,2013-07-11 13:41:00,
2013-07-11 08:46:00,72.7,63.1,29.95,SE,144,2.0,7.0,72,0.00,,,0.00,383,WeatherCatV1.15B25,2013-07-11 13:46:00,
2013-07-11 08:51:00,73.1,63.1,29.95,SE,137,2.0,9.0,71,0.00,,,0.00,403,WeatherCatV1.15B25,2013-07-11 13:51:00,
2013-07-11 08:56:00,73.6,63.2,29.95,SE,140,0.0,10.0,70,0.00,,,0.00,418,WeatherCatV1.15B25,2013-07-11 13:56:00,
2013-07-11 09:01:00,73.8,63.4,29.95,ESE,122,4.0,4.0,70,0.00,,,0.00,432,WeatherCatV1.15B25,2013-07-11 14:01:00,
2013-07-11 09:06:00,74.0,63.6,29.95,ESE,111,6.0,10.0,70,0.00,,,0.00,446,WeatherCatV1.15B25,2013-07-11 14:06:00,
2013-07-11 09:11:00,74.0,63.2,29.95,SE,126,2.0,4.0,69,0.00,,,0.00,466,WeatherCatV1.15B25,2013-07-11 14:11:00,
2013-07-11 09:16:00,74.2,62.5,29.95,South,172,4.0,15.0,67,0.00,,,0.00,482,WeatherCatV1.15B25,2013-07-11 14:16:00,
2013-07-11 09:21:00,74.5,63.6,29.96,South,171,2.0,6.0,69,0.00,,,0.00,497,WeatherCatV1.15B25,2013-07-11 14:21:00,
2013-07-11 09:26:00,75.1,64.2,29.96,SSE,162,11.0,11.0,69,0.00,,,0.00,510,WeatherCatV1.15B25,2013-07-11 14:26:00,
2013-07-11 09:31:00,74.9,63.2,29.96,SSE,165,4.0,9.0,67,0.00,,,0.00,524,WeatherCatV1.15B25,2013-07-11 14:31:00,
2013-07-11 09:36:00,75.0,63.3,29.97,SSE,153,7.0,13.0,67,0.00,,,0.00,541,WeatherCatV1.15B25,2013-07-11 14:36:00,
2013-07-11 09:41:00,75.0,62.9,29.96,SSE,160,4.0,14.0,66,0.00,,,0.00,555,WeatherCatV1.15B25,2013-07-11 14:41:00,
2013-07-11 09:46:00,75.3,63.1,29.96,SE,131,3.0,16.0,66,0.00,,,0.00,568,WeatherCatV1.15B25,2013-07-11 14:46:00,
2013-07-11 09:49:00,75.4,62.8,29.96,SSE,148,8.0,11.0,65,0.00,,,0.00,582,WeatherCatV1.15B25,2013-07-11 14:49:00,
2013-07-11 09:54:00,75.9,63.3,29.96,SSE,167,3.0,4.0,65,0.00,,,0.00,592,WeatherCatV1.15B25,2013-07-11 14:54:00,
2013-07-11 09:59:00,76.2,63.1,29.96,SSE,164,1.0,10.0,64,0.00,,,0.00,605,WeatherCatV1.15B25,2013-07-11 14:59:00,
2013-07-11 10:04:00,76.4,63.3,29.96,ESE,102,6.0,12.0,64,0.00,,,0.00,621,WeatherCatV1.15B25,2013-07-11 15:04:00,
2013-07-11 10:09:00,76.6,63.0,29.95,SE,144,6.0,14.0,63,0.00,,,0.00,633,WeatherCatV1.15B25,2013-07-11 15:09:00,
2013-07-11 10:14:00,76.8,63.2,29.96,SE,130,6.0,14.0,63,0.00,,,0.00,647,WeatherCatV1.15B25,2013-07-11 15:14:00,
2013-07-11 10:19:00,77.0,63.4,29.96,SSE,154,1.0,11.0,63,0.00,,,0.00,661,WeatherCatV1.15B25,2013-07-11 15:19:00,
2013-07-11 10:24:00,77.9,64.3,29.96,SE,126,9.0,9.0,63,0.00,,,0.00,673,WeatherCatV1.15B25,2013-07-11 15:24:00,
2013-07-11 10:29:00,78.2,64.1,29.96,SSW,195,6.0,9.0,62,0.00,,,0.00,682,WeatherCatV1.15B25,2013-07-11 15:29:00,
2013-07-11 10:34:00,78.0,64.4,29.96,South,177,4.0,8.0,63,0.00,,,0.00,696,WeatherCatV1.15B25,2013-07-11 15:34:00,
2013-07-11 10:39:00,78.4,63.8,29.97,SSW,194,4.0,10.0,61,0.00,,,0.00,708,WeatherCatV1.15B25,2013-07-11 15:39:00,
2013-07-11 10:44:00,78.8,65.1,29.97,South,173,2.0,5.0,63,0.00,,,0.00,715,WeatherCatV1.15B25,2013-07-11 15:44:00,
2013-07-11 10:49:00,78.7,64.6,29.97,South,182,1.0,6.0,62,0.00,,,0.00,728,WeatherCatV1.15B25,2013-07-11 15:49:00,
2013-07-11 10:54:00,78.6,64.5,29.97,SSW,205,4.0,7.0,62,0.00,,,0.00,744,WeatherCatV1.15B25,2013-07-11 15:54:00,
2013-07-11 10:59:00,78.7,64.6,29.96,SSW,196,9.0,14.0,62,0.00,,,0.00,754,WeatherCatV1.15B25,2013-07-11 15:59:00,
2013-07-11 11:04:00,78.9,64.8,29.96,South,181,10.0,14.0,62,0.00,,,0.00,765,WeatherCatV1.15B25,2013-07-11 16:04:00,
2013-07-11 11:09:00,79.4,64.8,29.96,SE,136,5.0,17.0,61,0.00,,,0.00,775,WeatherCatV1.15B25,2013-07-11 16:09:00,
2013-07-11 11:14:00,79.2,64.6,29.96,South,178,4.0,12.0,61,0.00,,,0.00,786,WeatherCatV1.15B25,2013-07-11 16:14:00,
2013-07-11 11:19:00,79.2,64.6,29.96,ESE,115,2.0,12.0,61,0.00,,,0.00,793,WeatherCatV1.15B25,2013-07-11 16:19:00,
2013-07-11 11:24:00,79.8,64.7,29.95,ESE,110,5.0,15.0,60,0.00,,,0.00,810,WeatherCatV1.15B25,2013-07-11 16:24:00,
2013-07-11 11:29:00,80.2,66.4,29.95,East,86,3.0,9.0,63,0.00,,,0.00,826,WeatherCatV1.15B25,2013-07-11 16:29:00,
2013-07-11 11:34:00,80.3,65.6,29.95,ESE,103,7.0,11.0,61,0.00,,,0.00,831,WeatherCatV1.15B25,2013-07-11 16:34:00,
2013-07-11 11:39:00,80.2,65.0,29.95,SSE,167,5.0,13.0,60,0.00,,,0.00,844,WeatherCatV1.15B25,2013-07-11 16:39:00,
2013-07-11 11:44:00,80.5,65.8,29.94,SE,128,9.0,11.0,61,0.00,,,0.00,846,WeatherCatV1.15B25,2013-07-11 16:44:00,
2013-07-11 11:49:00,80.7,65.5,29.94,SE,125,4.0,12.0,60,0.00,,,0.00,865,WeatherCatV1.15B25,2013-07-11 16:49:00,
2013-07-11 11:54:00,80.9,66.2,29.94,South,191,6.0,6.0,61,0.00,,,0.00,863,WeatherCatV1.15B25,2013-07-11 16:54:00,
2013-07-11 11:59:00,81.1,65.9,29.94,SE,137,10.0,10.0,60,0.00,,,0.00,870,WeatherCatV1.15B25,2013-07-11 16:59:00,
2013-07-11 12:04:00,81.5,66.7,29.94,South,177,5.0,11.0,61,0.00,,,0.00,877,WeatherCatV1.15B25,2013-07-11 17:04:00,
2013-07-11 12:09:00,81.5,66.2,29.94,SSE,164,6.0,9.0,60,0.00,,,0.00,891,WeatherCatV1.15B25,2013-07-11 17:09:00,
2013-07-11 12:14:00,81.6,66.3,29.94,South,178,7.0,11.0,60,0.00,,,0.00,895,WeatherCatV1.15B25,2013-07-11 17:14:00,
2013-07-11 12:19:00,81.9,67.1,29.94,SSE,165,0.0,6.0,61,0.00,,,0.00,896,WeatherCatV1.15B25,2013-07-11 17:19:00,
2013-07-11 12:24:00,82.1,66.8,29.94,SE,128,6.0,13.0,60,0.00,,,0.00,900,WeatherCatV1.15B25,2013-07-11 17:24:00,
2013-07-11 12:29:00,81.9,66.1,29.94,South,173,4.0,11.0,59,0.00,,,0.00,911,WeatherCatV1.15B25,2013-07-11 17:29:00,
2013-07-11 12:34:00,82.0,66.7,29.94,SW,220,12.0,16.0,60,0.00,,,0.00,921,WeatherCatV1.15B25,2013-07-11 17:34:00,
2013-07-11 12:39:00,82.7,67.4,29.93,SSE,163,5.0,10.0,60,0.00,,,0.00,918,WeatherCatV1.15B25,2013-07-11 17:39:00,
2013-07-11 12:44:00,83.3,67.4,29.93,SSW,192,0.0,7.0,59,0.00,,,0.00,925,WeatherCatV1.15B25,2013-07-11 17:44:00,
2013-07-11 12:49:00,83.9,67.5,29.93,SE,136,2.0,9.0,58,0.00,,,0.00,932,WeatherCatV1.15B25,2013-07-11 17:49:00,
2013-07-11 12:51:00,83.9,67.5,29.93,South,178,4.0,9.0,58,0.00,,,0.00,930,WeatherCatV1.15B25,2013-07-11 17:51:00,
2013-07-11 12:56:00,83.5,68.1,29.93,SSE,153,6.0,6.0,60,0.00,,,0.00,932,WeatherCatV1.15B25,2013-07-11 17:56:00,
2013-07-11 13:01:00,83.2,67.4,29.93,SE,137,1.0,10.0,59,0.00,,,0.00,935,WeatherCatV1.15B25,2013-07-11 18:01:00,
2013-07-11 13:06:00,83.3,67.4,29.92,SSW,195,5.0,12.0,59,0.00,,,0.00,939,WeatherCatV1.15B25,2013-07-11 18:06:00,
2013-07-11 13:11:00,83.6,67.2,29.92,East,98,3.0,11.0,58,0.00,,,0.00,942,WeatherCatV1.15B25,2013-07-11 18:11:00,
2013-07-11 13:16:00,83.9,67.0,29.92,SE,132,5.0,9.0,57,0.00,,,0.00,940,WeatherCatV1.15B25,2013-07-11 18:16:00,
2013-07-11 13:21:00,83.7,66.8,29.92,SE,130,3.0,13.0,57,0.00,,,0.00,942,WeatherCatV1.15B25,2013-07-11 18:21:00,
2013-07-11 13:26:00,83.4,67.0,29.92,SSE,149,0.0,5.0,58,0.00,,,0.00,946,WeatherCatV1.15B25,2013-07-11 18:26:00,
2013-07-11 13:31:00,84.3,68.4,29.92,SE,144,0.0,10.0,59,0.00,,,0.00,944,WeatherCatV1.15B25,2013-07-11 18:31:00,
2013-07-11 13:36:00,84.7,66.7,29.92,ESE,118,7.0,11.0,55,0.00,,,0.00,944,WeatherCatV1.15B25,2013-07-11 18:36:00,
2013-07-11 13:41:00,84.4,67.5,29.92,South,171,2.0,12.0,57,0.00,,,0.00,947,WeatherCatV1.15B25,2013-07-11 18:41:00,
2013-07-11 13:46:00,84.7,67.2,29.92,ESE,119,0.0,15.0,56,0.00,,,0.00,951,WeatherCatV1.15B25,2013-07-11 18:46:00,
2013-07-11 13:51:00,84.7,67.2,29.91,SE,130,13.0,13.0,56,0.00,,,0.00,947,WeatherCatV1.15B25,2013-07-11 18:51:00,
2013-07-11 13:56:00,84.7,67.2,29.91,ESE,107,4.0,8.0,56,0.00,,,0.00,946,WeatherCatV1.15B25,2013-07-11 18:56:00,
2013-07-11 14:01:00,84.9,67.9,29.91,ESE,113,0.0,7.0,57,0.00,,,0.00,935,WeatherCatV1.15B25,2013-07-11 19:01:00,
2013-07-11 14:06:00,84.8,67.8,29.91,ESE,112,7.0,7.0,57,0.00,,,0.00,939,WeatherCatV1.15B25,2013-07-11 19:06:00,
2013-07-11 14:11:00,85.3,67.8,29.91,SSE,153,2.0,8.0,56,0.00,,,0.00,939,WeatherCatV1.15B25,2013-07-11 19:11:00,
2013-07-11 14:16:00,85.9,67.8,29.91,East,86,4.0,11.0,55,0.00,,,0.00,937,WeatherCatV1.15B25,2013-07-11 19:16:00,
2013-07-11 14:21:00,85.0,67.5,29.91,South,187,0.0,14.0,56,0.00,,,0.00,933,WeatherCatV1.15B25,2013-07-11 19:21:00,
2013-07-11 14:26:00,84.9,66.9,29.91,South,178,5.0,13.0,55,0.00,,,0.00,933,WeatherCatV1.15B25,2013-07-11 19:26:00,
2013-07-11 14:31:00,84.4,67.5,29.91,East,88,6.0,13.0,57,0.00,,,0.00,925,WeatherCatV1.15B25,2013-07-11 19:31:00,
2013-07-11 14:36:00,85.1,68.6,29.91,ESE,114,4.0,4.0,58,0.00,,,0.00,921,WeatherCatV1.15B25,2013-07-11 19:36:00,
2013-07-11 14:41:00,86.0,69.0,29.90,SE,144,2.0,13.0,57,0.00,,,0.00,916,WeatherCatV1.15B25,2013-07-11 19:41:00,
2013-07-11 14:46:00,85.8,67.7,29.90,SSE,149,5.0,9.0,55,0.00,,,0.00,912,WeatherCatV1.15B25,2013-07-11 19:46:00,
2013-07-11 14:51:00,85.4,67.9,29.90,SE,145,7.0,13.0,56,0.00,,,0.00,905,WeatherCatV1.15B25,2013-07-11 19:51:00,
2013-07-11 14:56:00,85.7,68.2,29.90,SSW,213,3.0,12.0,56,0.00,,,0.00,902,WeatherCatV1.15B25,2013-07-11 19:56:00,
2013-07-11 15:01:00,85.9,68.9,29.90,SSW,194,0.0,13.0,57,0.00,,,0.00,895,WeatherCatV1.15B25,2013-07-11 20:01:00,
2013-07-11 15:06:00,86.9,68.8,29.90,East,92,6.0,11.0,55,0.00,,,0.00,891,WeatherCatV1.15B25,2013-07-11 20:06:00,
2013-07-11 15:11:00,86.4,67.2,29.90,ESE,115,4.0,15.0,53,0.00,,,0.00,886,WeatherCatV1.15B25,2013-07-11 20:11:00,
2013-07-11 15:16:00,86.1,68.0,29.90,SSW,205,7.0,11.0,55,0.00,,,0.00,877,WeatherCatV1.15B25,2013-07-11 20:16:00,
2013-07-11 15:21:00,86.3,67.7,29.89,SSE,158,7.0,13.0,54,0.00,,,0.00,870,WeatherCatV1.15B25,2013-07-11 20:21:00,
2013-07-11 15:26:00,86.1,68.0,29.89,SSE,153,1.0,13.0,55,0.00,,,0.00,863,WeatherCatV1.15B25,2013-07-11 20:26:00,
2013-07-11 15:31:00,86.4,67.2,29.90,SSE,150,3.0,14.0,53,0.00,,,0.00,858,WeatherCatV1.15B25,2013-07-11 20:31:00,
2013-07-11 15:36:00,86.6,68.5,29.89,South,172,5.0,15.0,55,0.00,,,0.00,846,WeatherCatV1.15B25,2013-07-11 20:36:00,
2013-07-11 15:41:00,86.7,68.6,29.89,SSW,210,9.0,9.0,55,0.00,,,0.00,838,WeatherCatV1.15B25,2013-07-11 20:41:00,
2013-07-11 15:46:00,87.2,67.9,29.89,SSE,153,4.0,12.0,53,0.00,,,0.00,831,WeatherCatV1.15B25,2013-07-11 20:46:00,
2013-07-11 15:51:00,86.7,68.0,29.88,SE,138,4.0,12.0,54,0.00,,,0.00,823,WeatherCatV1.15B25,2013-07-11 20:51:00,
2013-07-11 15:56:00,87.1,69.5,29.89,ESE,105,10.0,14.0,56,0.00,,,0.00,810,WeatherCatV1.15B25,2013-07-11 20:56:00,
2013-07-11 16:01:00,86.8,68.7,29.88,South,184,2.0,8.0,55,0.00,,,0.00,798,WeatherCatV1.15B25,2013-07-11 21:01:00,
2013-07-11 16:06:00,86.8,67.6,29.88,SE,138,4.0,10.0,53,0.00,,,0.00,791,WeatherCatV1.15B25,2013-07-11 21:06:00,
2013-07-11 16:11:00,87.1,68.4,29.88,South,184,0.0,12.0,54,0.00,,,0.00,775,WeatherCatV1.15B25,2013-07-11 21:11:00,
2013-07-11 16:16:00,87.1,68.4,29.88,SSE,167,5.0,11.0,54,0.00,,,0.00,773,WeatherCatV1.15B25,2013-07-11 21:16:00,
2013-07-11 16:21:00,87.3,68.6,29.87,SE,132,0.0,8.0,54,0.00,,,0.00,759,WeatherCatV1.15B25,2013-07-11 21:21:00,
2013-07-11 16:26:00,87.2,68.5,29.87,ESE,117,0.0,14.0,54,0.00,,,0.00,749,WeatherCatV1.15B25,2013-07-11 21:26:00,
2013-07-11 16:31:00,87.2,68.5,29.87,SSW,208,6.0,15.0,54,0.00,,,0.00,738,WeatherCatV1.15B25,2013-07-11 21:31:00,
2013-07-11 16:36:00,87.5,68.8,29.87,SSE,148,0.0,9.0,54,0.00,,,0.00,728,WeatherCatV1.15B25,2013-07-11 21:36:00,
2013-07-11 16:41:00,87.4,68.7,29.86,South,171,3.0,7.0,54,0.00,,,0.00,710,WeatherCatV1.15B25,2013-07-11 21:41:00,
2013-07-11 16:46:00,87.6,68.9,29.86,SE,125,3.0,9.0,54,0.00,,,0.00,701,WeatherCatV1.15B25,2013-07-11 21:46:00,
2013-07-11 16:51:00,87.3,68.6,29.86,SE,138,4.0,12.0,54,0.00,,,0.00,689,WeatherCatV1.15B25,2013-07-11 21:51:00,
2013-07-11 16:56:00,87.1,68.4,29.86,East,97,0.0,13.0,54,0.00,,,0.00,677,WeatherCatV1.15B25,2013-07-11 21:56:00,
2013-07-11 17:01:00,87.4,68.1,29.86,ESE,112,1.0,10.0,53,0.00,,,0.00,661,WeatherCatV1.15B25,2013-07-11 22:01:00,
2013-07-11 17:06:00,87.5,68.8,29.85,ESE,107,3.0,6.0,54,0.00,,,0.00,650,WeatherCatV1.15B25,2013-07-11 22:06:00,
2013-07-11 17:11:00,87.0,68.3,29.85,ESE,108,3.0,15.0,54,0.00,,,0.00,633,WeatherCatV1.15B25,2013-07-11 22:11:00,
2013-07-11 17:16:00,87.0,68.3,29.85,SSE,148,5.0,9.0,54,0.00,,,0.00,621,WeatherCatV1.15B25,2013-07-11 22:16:00,
2013-07-11 17:21:00,87.1,68.9,29.85,SE,145,2.0,11.0,55,0.00,,,0.00,605,WeatherCatV1.15B25,2013-07-11 22:21:00,
2013-07-11 17:26:00,87.3,68.6,29.85,ESE,121,6.0,10.0,54,0.00,,,0.00,589,WeatherCatV1.15B25,2013-07-11 22:26:00,
2013-07-11 17:31:00,87.1,68.4,29.85,ESE,119,2.0,10.0,54,0.00,,,0.00,578,WeatherCatV1.15B25,2013-07-11 22:31:00,
2013-07-11 17:36:00,87.3,68.6,29.85,ESE,106,5.0,11.0,54,0.00,,,0.00,564,WeatherCatV1.15B25,2013-07-11 22:36:00,
2013-07-11 17:41:00,87.4,69.2,29.85,SE,140,0.0,8.0,55,0.00,,,0.00,548,WeatherCatV1.15B25,2013-07-11 22:41:00,
2013-07-11 17:46:00,87.8,69.6,29.85,ESE,106,7.0,11.0,55,0.00,,,0.00,533,WeatherCatV1.15B25,2013-07-11 22:46:00,
2013-07-11 17:51:00,87.4,68.1,29.84,East,101,7.0,14.0,53,0.00,,,0.00,517,WeatherCatV1.15B25,2013-07-11 22:51:00,
2013-07-11 17:56:00,87.2,69.0,29.85,ESE,105,7.0,10.0,55,0.00,,,0.00,499,WeatherCatV1.15B25,2013-07-11 22:56:00,
2013-07-11 18:01:00,87.0,68.8,29.84,SE,127,8.0,12.0,55,0.00,,,0.00,485,WeatherCatV1.15B25,2013-07-11 23:01:00,
2013-07-11 18:06:00,87.0,68.8,29.84,SE,137,2.0,9.0,55,0.00,,,0.00,471,WeatherCatV1.15B25,2013-07-11 23:06:00,
2013-07-11 18:11:00,87.2,68.5,29.83,SSW,192,7.0,10.0,54,0.00,,,0.00,455,WeatherCatV1.15B25,2013-07-11 23:11:00,
2013-07-11 18:16:00,87.1,68.4,29.83,ESE,116,6.0,14.0,54,0.00,,,0.00,441,WeatherCatV1.15B25,2013-07-11 23:16:00,
2013-07-11 18:21:00,87.0,68.8,29.83,SSE,151,3.0,10.0,55,0.00,,,0.00,427,WeatherCatV1.15B25,2013-07-11 23:21:00,
2013-07-11 18:26:00,86.9,68.2,29.83,ESE,112,4.0,15.0,54,0.00,,,0.00,410,WeatherCatV1.15B25,2013-07-11 23:26:00,
2013-07-11 18:31:00,86.9,68.8,29.83,SE,133,3.0,11.0,55,0.00,,,0.00,396,WeatherCatV1.15B25,2013-07-11 23:31:00,
2013-07-11 18:36:00,86.7,68.0,29.82,ESE,109,4.0,13.0,54,0.00,,,0.00,381,WeatherCatV1.15B25,2013-07-11 23:36:00,
2013-07-11 18:41:00,86.6,68.5,29.82,ESE,113,2.0,16.0,55,0.00,,,0.00,362,WeatherCatV1.15B25,2013-07-11 23:41:00,
2013-07-11 18:46:00,86.7,68.6,29.82,SE,146,3.0,12.0,55,0.00,,,0.00,348,WeatherCatV1.15B25,2013-07-11 23:46:00,
2013-07-11 18:51:00,86.7,68.6,29.82,SE,136,3.0,9.0,55,0.00,,,0.00,332,WeatherCatV1.15B25,2013-07-11 23:51:00,
2013-07-11 18:56:00,86.5,67.8,29.81,SE,142,5.0,15.0,54,0.00,,,0.00,315,WeatherCatV1.15B25,2013-07-11 23:56:00,
2013-07-11 19:01:00,86.3,68.7,29.81,East,97,3.0,11.0,56,0.00,,,0.00,301,WeatherCatV1.15B25,2013-07-12 00:01:00,
2013-07-11 19:06:00,86.3,68.2,29.81,ESE,121,5.0,15.0,55,0.00,,,0.00,285,WeatherCatV1.15B25,2013-07-12 00:06:00,
2013-07-11 19:11:00,86.2,68.1,29.81,ESE,122,1.0,12.0,55,0.00,,,0.00,267,WeatherCatV1.15B25,2013-07-12 00:11:00,
2013-07-11 19:16:00,86.1,69.1,29.81,SE,124,1.0,3.0,57,0.00,,,0.00,251,WeatherCatV1.15B25,2013-07-12 00:16:00,
2013-07-11 19:21:00,85.6,69.6,29.81,SE,140,2.0,7.0,59,0.00,,,0.00,234,WeatherCatV1.15B25,2013-07-12 00:21:00,
2013-07-11 19:26:00,85.3,69.3,29.81,ESE,110,0.0,9.0,59,0.00,,,0.00,216,WeatherCatV1.15B25,2013-07-12 00:26:00,
2013-07-11 19:31:00,85.2,69.7,29.81,ESE,102,0.0,4.0,60,0.00,,,0.00,200,WeatherCatV1.15B25,2013-07-12 00:31:00,
2013-07-11 19:36:00,85.1,69.6,29.81,East,94,3.0,7.0,60,0.00,,,0.00,188,WeatherCatV1.15B25,2013-07-12 00:36:00,
2013-07-11 19:41:00,84.6,69.2,29.81,ESE,102,2.0,11.0,60,0.00,,,0.00,165,WeatherCatV1.15B25,2013-07-12 00:41:00,
2013-07-11 19:46:00,84.3,68.9,29.81,SE,144,5.0,7.0,60,0.00,,,0.00,151,WeatherCatV1.15B25,2013-07-12 00:46:00,
2013-07-11 19:51:00,84.0,69.1,29.81,SE,126,8.0,8.0,61,0.00,,,0.00,135,WeatherCatV1.15B25,2013-07-12 00:51:00,
2013-07-11 19:56:00,83.9,69.0,29.81,SSE,156,1.0,5.0,61,0.00,,,0.00,118,WeatherCatV1.15B25,2013-07-12 00:56:00,
2013-07-11 20:01:00,83.7,68.8,29.81,SE,130,1.0,6.0,61,0.00,,,0.00,102,WeatherCatV1.15B25,2013-07-12 01:01:00,
2013-07-11 20:06:00,83.5,69.1,29.81,SE,136,1.0,7.0,62,0.00,,,0.00,90,WeatherCatV1.15B25,2013-07-12 01:06:00,
2013-07-11 20:11:00,83.2,68.8,29.81,ESE,113,7.0,7.0,62,0.00,,,0.00,74,WeatherCatV1.15B25,2013-07-12 01:11:00,
2013-07-11 20:16:00,82.9,69.0,29.81,SE,141,8.0,8.0,63,0.00,,,0.00,63,WeatherCatV1.15B25,2013-07-12 01:16:00,
2013-07-11 20:21:00,82.5,68.6,29.81,ESE,123,3.0,10.0,63,0.00,,,0.00,53,WeatherCatV1.15B25,2013-07-12 01:21:00,
2013-07-11 20:26:00,82.3,67.9,29.81,SE,134,2.0,7.0,62,0.00,,,0.00,42,WeatherCatV1.15B25,2013-07-12 01:26:00,
2013-07-11 20:31:00,82.0,68.1,29.81,SE,130,2.0,10.0,63,0.00,,,0.00,33,WeatherCatV1.15B25,2013-07-12 01:31:00,
2013-07-11 20:36:00,81.8,67.9,29.81,SE,127,3.0,12.0,63,0.00,,,0.00,25,WeatherCatV1.15B25,2013-07-12 01:36:00,
2013-07-11 20:41:00,81.5,67.7,29.81,SE,128,3.0,11.0,63,0.00,,,0.00,19,WeatherCatV1.15B25,2013-07-12 01:41:00,
2013-07-11 20:46:00,81.2,67.8,29.81,ESE,113,1.0,5.0,64,0.00,,,0.00,16,WeatherCatV1.15B25,2013-07-12 01:46:00,
2013-07-11 20:51:00,80.9,67.6,29.81,ESE,104,1.0,6.0,64,0.00,,,0.00,14,WeatherCatV1.15B25,2013-07-12 01:51:00,
2013-07-11 20:56:00,80.7,67.4,29.80,ESE,116,1.0,5.0,64,0.00,,,0.00,11,WeatherCatV1.15B25,2013-07-12 01:56:00,
2013-07-11 21:01:00,80.4,67.1,29.80,SE,146,2.0,11.0,64,0.00,,,0.00,7,WeatherCatV1.15B25,2013-07-12 02:01:00,
2013-07-11 21:06:00,80.1,66.8,29.81,ESE,105,2.0,10.0,64,0.00,,,0.00,0,WeatherCatV1.15B25,2013-07-12 02:06:00,
2013-07-11 21:11:00,79.9,66.6,29.81,SE,132,4.0,5.0,64,0.00,,,0.00,0,WeatherCatV1.15B25,2013-07-12 02:11:00,
2013-07-11 21:16:00,79.6,66.3,29.81,ESE,117,3.0,11.0,64,0.00,,,0.00,0,WeatherCatV1.15B25,2013-07-12 02:16:00,
2013-07-11 21:21:00,79.4,66.6,29.81,East,101,5.0,6.0,65,0.00,,,0.00,0,WeatherCatV1.15B25,2013-07-12 02:21:00,
2013-07-11 21:26:00,79.1,66.3,29.81,East,88,6.0,10.0,65,0.00,,,0.00,0,WeatherCatV1.15B25,2013-07-12 02:26:00,
2013-07-11 21:31:00,78.9,66.1,29.81,SE,128,6.0,13.0,65,0.00,,,0.00,0,WeatherCatV1.15B25,2013-07-12 02:31:00,
2013-07-11 21:36:00,78.8,66.0,29.81,South,182,2.0,10.0,65,0.00,,,0.00,0,WeatherCatV1.15B25,2013-07-12 02:36:00,
2013-07-11 21:41:00,78.7,65.9,29.81,SE,146,6.0,10.0,65,0.00,,,0.00,0,WeatherCatV1.15B25,2013-07-12 02:41:00,
2013-07-11 21:46:00,78.7,65.9,29.81,ESE,119,9.0,9.0,65,0.00,,,0.00,0,WeatherCatV1.15B25,2013-07-12 02:46:00,
2013-07-11 21:51:00,78.4,65.6,29.81,SE,132,3.0,6.0,65,0.00,,,0.00,0,WeatherCatV1.15B25,2013-07-12 02:51:00,
2013-07-11 21:56:00,78.3,65.5,29.82,SE,133,0.0,6.0,65,0.00,,,0.00,0,WeatherCatV1.15B25,2013-07-12 02:56:00,
2013-07-11 22:01:00,78.1,65.4,29.81,ESE,122,6.0,10.0,65,0.00,,,0.00,0,WeatherCatV1.15B25,2013-07-12 03:01:00,
2013-07-11 22:06:00,78.0,65.3,29.82,SSE,158,3.0,7.0,65,0.00,,,0.00,0,WeatherCatV1.15B25,2013-07-12 03:06:00,
2013-07-11 22:11:00,77.8,65.1,29.82,SE,125,4.0,13.0,65,0.00,,,0.00,0,WeatherCatV1.15B25,2013-07-12 03:11:00,
2013-07-11 22:16:00,77.6,64.9,29.82,East,101,2.0,5.0,65,0.00,,,0.00,0,WeatherCatV1.15B25,2013-07-12 03:16:00,
2013-07-11 22:21:00,77.6,64.9,29.83,SSE,157,4.0,9.0,65,0.00,,,0.00,0,WeatherCatV1.15B25,2013-07-12 03:21:00,
2013-07-11 22:26:00,77.5,64.8,29.82,SE,130,4.0,7.0,65,0.00,,,0.00,0,WeatherCatV1.15B25,2013-07-12 03:26:00,
2013-07-11 22:31:00,77.4,64.2,29.83,SE,128,8.0,10.0,64,0.00,,,0.00,0,WeatherCatV1.15B25,2013-07-12 03:31:00,
2013-07-11 22:36:00,77.3,64.2,29.83,ESE,120,7.0,11.0,64,0.00,,,0.00,0,WeatherCatV1.15B25,2013-07-12 03:36:00,
2013-07-11 22:41:00,77.2,64.1,29.83,SSE,156,5.0,7.0,64,0.00,,,0.00,0,WeatherCatV1.15B25,2013-07-12 03:41:00,
2013-07-11 22:46:00,77.1,64.0,29.83,SSE,148,4.0,13.0,64,0.00,,,0.00,0,WeatherCatV1.15B25,2013-07-12 03:46:00,
2013-07-11 22:51:00,76.8,63.7,29.83,ESE,109,7.0,10.0,64,0.00,,,0.00,0,WeatherCatV1.15B25,2013-07-12 03:51:00,
2013-07-11 22:56:00,76.8,63.7,29.83,SSE,160,5.0,11.0,64,0.00,,,0.00,0,WeatherCatV1.15B25,2013-07-12 03:56:00,
2013-07-11 23:01:00,76.8,63.7,29.83,SE,133,10.0,11.0,64,0.00,,,0.00,0,WeatherCatV1.15B25,2013-07-12 04:01:00,
2013-07-11 23:06:00,76.9,63.3,29.83,SE,146,1.0,10.0,63,0.00,,,0.00,0,WeatherCatV1.15B25,2013-07-12 04:06:00,
2013-07-11 23:11:00,77.0,63.4,29.83,ESE,105,4.0,7.0,63,0.00,,,0.00,0,WeatherCatV1.15B25,2013-07-12 04:11:00,
2013-07-11 23:16:00,77.0,63.0,29.83,SE,146,2.0,11.0,62,0.00,,,0.00,0,WeatherCatV1.15B25,2013-07-12 04:16:00,
2013-07-11 23:21:00,77.0,62.5,29.83,SE,136,6.0,14.0,61,0.00,,,0.00,0,WeatherCatV1.15B25,2013-07-12 04:21:00,
2013-07-11 23:26:00,76.9,62.4,29.84,SE,129,4.0,10.0,61,0.00,,,0.00,0,WeatherCatV1.15B25,2013-07-12 04:26:00,
2013-07-11 23:31:00,76.9,62.4,29.84,SSE,159,3.0,6.0,61,0.00,,,0.00,0,WeatherCatV1.15B25,2013-07-12 04:31:00,
2013-07-11 23:36:00,76.7,62.2,29.84,East,96,6.0,12.0,61,0.00,,,0.00,0,WeatherCatV1.15B25,2013-07-12 04:36:00,
2013-07-11 23:41:00,76.5,62.0,29.84,SSE,148,5.0,7.0,61,0.00,,,0.00,0,WeatherCatV1.15B25,2013-07-12 04:41:00,
2013-07-11 23:46:00,76.3,62.3,29.84,SE,132,1.0,9.0,62,0.00,,,0.00,0,WeatherCatV1.15B25,2013-07-12 04:46:00,
2013-07-11 23:51:00,76.0,62.0,29.84,SSE,165,5.0,7.0,62,0.00,,,0.00,0,WeatherCatV1.15B25,2013-07-12 04:51:00,
2013-07-11 23:56:00,75.8,62.3,29.85,SSE,154,5.0,8.0,63,0.00,,,0.00,0,WeatherCatV1.15B25,2013-07-12 04:56:00,